[[{"header":{"parameterUnit":"m.s-1","parameterCategory":1,"la1":30.2991,"la2":30.254,"lo1":-89.0895,"lo2":-89.0444,"dy":0.0017,"dx":0.0017,"nx":28,"ny":28,"refTime":"2023-08-02T03:00:00:Z","depth":0,"parameterNumber":2,"parameterNumberName":"U-component_of_WINDS"},"data":[0,0,0,0,0,0,0,0,0,0,0,0,0,0,0,0,0,0,0,0,0,0,0,0,0,0,0,0,0,0,0,0,0,0,0,0,0,0,0,0,0,0,0,0,0,0,0,0,0,0,0,0,0,0,0,0,0,0,1.6306,1.6306,0,1.6277,1.6277,1.6276,1.6207,1.6206,1.6204,1.6203,1.6173,1.6173,1.6174,0,0,0,0,0,0,0,0,0,0,0,0,0,1.6299,1.6299,1.6306,1.6306,1.6305,1.6277,1.6277,1.6276,1.6207,1.6205,1.6204,1.6202,1.6172,1.6173,1.6174,0,0,0,0,0,0,0,0,0,0,0,0,0,1.6289,1.63,1.6306,1.6268,1.6264,1.6277,1.6277,1.6276,1.6208,1.6205,1.6203,1.6201,1.6172,1.6173,1.6174,1.6222,0,0,1.6176,1.6177,0,0,0,0,0,0,0,0,1.629,1.629,1.6274,1.627,1.6266,1.6243,1.6263,1.6258,1.6208,1.6229,1.6203,1.62,1.6198,1.6196,1.6196,1.6221,1.622,1.6176,1.6177,1.6177,1.6177,0,0,0,0,0,0,0,1.6291,1.629,1.6295,1.6273,1.6269,1.6251,1.6247,1.6262,1.6226,1.6227,1.6222,1.6219,1.6195,1.6195,1.6194,1.6219,1.6176,1.6177,1.6178,1.6178,1.6278,1.628,0,0,0,0,0,0,1.6297,1.6291,1.6295,1.6294,1.6273,1.6253,1.6248,1.6253,1.6226,1.6219,1.6221,1.6216,1.6195,1.6194,1.6193,1.6245,1.6177,1.6178,1.6178,1.6276,1.6278,1.6281,0,0,0,0,0,0,1.6297,1.6298,1.6297,1.6291,1.629,1.6255,1.6261,1.6253,1.6253,1.6221,1.6214,1.6228,1.6193,1.6192,1.6214,1.6243,1.6178,1.6179,1.6273,1.6277,1.628,1.6351,0,0,0,0,0,0,1.6297,1.6299,1.6318,1.6292,1.629,1.632,1.6262,1.6254,1.6255,1.6248,1.6225,1.622,1.6191,1.6214,1.6215,1.6243,1.618,1.627,1.6275,1.6278,1.6346,1.6356,1.6365,0,0,0,0,0,1.6297,1.634,1.6319,1.632,1.6313,1.6321,1.632,1.6287,1.6257,1.6275,1.6254,1.622,1.624,1.6217,1.6218,1.6246,1.6268,1.6273,1.6278,1.6341,1.6354,1.6365,0,0,0,0,0,0,1.637,1.6336,1.6312,1.6348,1.6338,1.631,1.6331,1.6302,1.63,1.6294,1.6252,1.6248,1.6275,1.6263,1.6238,1.6289,1.6248,1.6254,1.6296,1.6308,1.6317,1.6319,1.618,0,0,0,0,0,1.639,1.64,1.637,1.6404,1.64,1.6367,1.6369,1.6344,1.6332,1.6328,1.6308,1.6298,1.6301,1.6304,1.6306,1.6344,1.6336,1.6364,1.6373,1.6381,1.6386,1.6401,1.6412,1.6297,1.6297,1.6297,0,0,1.6432,1.6414,1.6424,1.6418,1.6407,1.6417,1.6364,1.6378,1.6384,1.633,1.6349,1.6334,1.6319,1.6349,1.6361,1.634,1.6416,1.6388,1.6394,1.6394,1.6408,1.6419,1.6428,1.63,1.6299,1.6299,0,0,1.6512,1.6502,1.6527,1.6517,1.6501,1.6478,1.6484,1.646,1.6448,1.6466,1.6425,1.6431,1.6439,1.6429,1.6425,1.6498,1.6466,1.65,1.655,1.6565,1.6574,1.6582,1.6605,1.6614,1.6505,1.6505,1.6505,0,1.6566,1.658,1.6544,1.6559,1.6556,1.6507,1.6531,1.6523,1.6509,1.6507,1.6484,1.649,1.6477,1.6501,1.6519,1.6519,1.6522,1.6502,1.6576,1.6584,1.659,1.6612,1.6621,1.6509,1.6509,1.6508,1.6508,0,1.6645,1.6655,1.6677,1.6663,1.6663,1.6683,1.6648,1.6653,1.6627,1.6606,1.6624,1.6606,1.6601,1.6606,1.6582,1.6626,1.6613,1.6584,1.6541,1.6606,1.6625,1.6633,1.6515,1.6514,1.6512,1.6511,0,0,1.6771,1.6735,1.6743,1.6735,1.6712,1.6719,1.6735,1.673,1.6733,1.6725,1.6735,1.6742,1.6713,1.6709,1.6683,1.6697,1.6752,1.6665,1.6664,1.6679,1.6796,1.6816,1.6826,1.6731,1.6732,1.6733,1.6796,0,1.6844,1.687,1.6836,1.6869,1.6876,1.6828,1.6842,1.6829,1.6809,1.6811,1.679,1.6793,1.6757,1.6753,1.6765,1.6743,1.6774,1.6738,1.6738,1.6739,1.6741,1.6837,1.6859,1.6919,1.6803,1.6805,1.6806,0,1.6933,1.6927,1.696,1.6932,1.6934,1.6947,1.6937,1.6941,1.6924,1.6909,1.6902,1.6871,1.6883,1.6843,1.6857,1.6833,1.6832,1.682,1.6822,1.6819,1.6775,1.6834,1.6938,1.6946,1.6818,1.6817,1.6816,0,1.7017,1.7018,1.7036,1.7031,1.7,1.701,1.6997,1.6978,1.6976,1.6968,1.6966,1.696,1.6956,1.6951,1.6918,1.6892,1.6935,1.6894,1.6921,1.6921,1.693,1.693,1.7033,1.6934,1.6934,1.6934,1.6933,0,1.7101,1.7122,1.7073,1.7085,1.7106,1.7067,1.7089,1.7072,1.7055,1.706,1.7019,1.7026,1.6982,1.6983,1.6957,1.6971,1.6971,1.6957,1.6949,1.6959,1.6961,1.6956,1.695,1.6936,1.6935,1.6935,1.6934,0,1.7199,1.7167,1.7184,1.7152,1.7145,1.7162,1.7134,1.7142,1.7119,1.7127,1.7127,1.7091,1.7089,1.7056,1.7048,1.703,1.7054,1.704,1.7059,1.7054,1.7081,1.7078,1.7183,1.7193,1.7091,1.7092,1.7093,0,1.7253,1.7268,1.7237,1.7238,1.7227,1.7229,1.7226,1.7187,1.7186,1.7166,1.7176,1.7171,1.7165,1.7165,1.7137,1.713,1.7114,1.7151,1.7112,1.7121,1.7111,1.7109,1.7109,1.7159,1.716,1.7161,1.7162,0,1.7352,1.7334,1.7332,1.7323,1.732,1.7311,1.73,1.7303,1.726,1.726,1.7257,1.7253,1.7243,1.7238,1.7225,1.7211,1.7178,1.7174,1.718,1.7189,1.7198,1.719,1.7078,1.7172,1.7171,1.717,1.717,1.7169,1.7427,1.7437,1.7416,1.7413,1.74,1.739,1.7395,1.7371,1.7369,1.7358,1.7335,1.7335,1.7315,1.7294,1.7283,1.7281,1.7262,1.7271,1.7273,1.7275,1.7279,1.72,1.7279,1.7279,1.7279,1.7278,1.7278,0,1.7521,1.7505,1.7503,1.7487,1.7484,1.7454,1.7439,1.7438,1.7439,1.7423,1.7417,1.7412,1.7406,1.7378,1.7368,1.7372,1.7357,1.7371,1.7369,1.7365,1.7298,1.7293,1.7383,1.7383,1.7383,1.7383,1.7383,1.7383,1.7569,1.7583,1.7563,1.7568,1.7551,1.7551,1.7544,1.7533,1.752,1.7517,1.7511,1.7492,1.747,1.7458,1.745,1.7442,1.7439,1.7457,1.7444,1.7381,1.7371,1.7361,1.7356,1.7458,1.7458,1.751,1.7511,1.7511]},{"header":{"parameterUnit":"m.s-1","parameterCategory":1,"la1":30.2991,"la2":30.254,"lo1":-89.0895,"lo2":-89.0444,"dy":0.0017,"dx":0.0017,"nx":28,"ny":28,"refTime":"2023-08-02T03:00:00:Z","depth":0,"parameterNumber":3,"parameterNumberName":"V-component_of_WINDS"},"data":[0,0,0,0,0,0,0,0,0,0,0,0,0,0,0,0,0,0,0,0,0,0,0,0,0,0,0,0,0,0,0,0,0,0,0,0,0,0,0,0,0,0,0,0,0,0,0,0,0,0,0,0,0,0,0,0,0,0,1.0033,1.0033,0,1.0088,1.0089,1.0089,1.0084,1.0083,1.0082,1.0081,1.0136,1.0138,1.014,0,0,0,0,0,0,0,0,0,0,0,0,0,0.9918,0.992,1.0032,1.0033,1.0034,1.0088,1.0089,1.0089,1.0084,1.0083,1.0082,1.0081,1.0135,1.0138,1.0141,0,0,0,0,0,0,0,0,0,0,0,0,0,0.997,0.9921,1.0032,1.0038,1.0039,1.0088,1.0089,1.009,1.0084,1.0083,1.0082,1.008,1.0134,1.0138,1.0141,1.0188,0,0,1.0151,1.0153,0,0,0,0,0,0,0,0,0.9967,0.9974,1.0036,1.0037,1.0039,1.0078,1.0068,1.0122,1.0084,1.0067,1.0081,1.008,1.0117,1.0122,1.0135,1.019,1.0193,1.0152,1.0154,1.0155,1.0156,0,0,0,0,0,0,0,0.9964,0.9972,1.0054,1.0037,1.0039,1.0036,1.0042,1.0079,1.0099,1.0068,1.0068,1.0075,1.0118,1.0132,1.0137,1.0193,1.0151,1.0154,1.0157,1.0158,1.0287,1.0288,0,0,0,0,0,0,0.9959,0.9969,1.0053,1.0056,0.9999,1.0039,1.0046,1.0066,1.0098,1.0102,1.0076,1.0074,1.0127,1.0133,1.0138,1.0194,1.0155,1.0158,1.016,1.0285,1.0287,1.0288,0,0,0,0,0,0,0.9957,0.9967,1.005,1.0012,1.0023,1.0043,1.0066,1.0068,1.0082,1.0104,1.0107,1.0087,1.0126,1.0134,1.0175,1.0196,1.016,1.0163,1.0284,1.0286,1.0288,1.0306,0,0,0,0,0,0,0.9953,0.9966,0.9985,1.0013,1.0025,1.0087,1.0067,1.007,1.0089,1.0087,1.0115,1.0119,1.0126,1.017,1.0178,1.02,1.0165,1.0282,1.0285,1.0287,1.0304,1.0309,1.0313,0,0,0,0,0,0.9949,0.9988,0.9986,0.9996,1.0049,1.0089,1.0095,1.0103,1.009,1.0109,1.0122,1.0118,1.0192,1.0174,1.0184,1.0206,1.0281,1.0284,1.0287,1.0302,1.0308,1.0313,0,0,0,0,0,0,0.9962,0.9992,0.999,1.0039,1.0061,1.0088,1.0111,1.011,1.0136,1.0133,1.0141,1.0148,1.0189,1.0202,1.0181,1.0252,1.0234,1.024,1.0242,1.0248,1.0253,1.0249,1.0168,0,0,0,0,0,0.997,1.0,1.0025,1.0065,1.0077,1.0092,1.0109,1.0113,1.0137,1.0146,1.0163,1.0185,1.0212,1.0231,1.0258,1.0305,1.031,1.0325,1.033,1.0333,1.0338,1.0361,1.0368,1.0299,1.0299,1.0299,0,0,0.9988,1.0008,1.0027,1.0068,1.0086,1.0116,1.01,1.0133,1.0155,1.0151,1.0191,1.0203,1.0228,1.0272,1.0292,1.0284,1.0358,1.0337,1.034,1.0342,1.0365,1.0372,1.0378,1.0301,1.03,1.03,0,0,1.0035,1.0054,1.0089,1.0107,1.0134,1.0144,1.0152,1.0178,1.0187,1.0227,1.0224,1.0249,1.0298,1.0315,1.0331,1.0382,1.0378,1.039,1.0414,1.0437,1.0443,1.0447,1.0465,1.0471,1.0395,1.0395,1.0395,0,1.0054,1.01,1.0107,1.014,1.0158,1.0155,1.019,1.0207,1.0241,1.0253,1.0243,1.0303,1.0319,1.0366,1.0379,1.0391,1.04,1.0388,1.0441,1.0446,1.0451,1.0467,1.0474,1.0396,1.0396,1.0396,1.0396,0,1.012,1.0152,1.0177,1.021,1.0231,1.0264,1.0276,1.0295,1.0296,1.0306,1.0346,1.0366,1.0396,1.0407,1.0409,1.0454,1.0448,1.044,1.0422,1.0459,1.0474,1.0481,1.0398,1.0397,1.0397,1.0397,0,0,1.0179,1.0214,1.0223,1.0238,1.0266,1.029,1.0323,1.0352,1.0368,1.0391,1.0418,1.0458,1.045,1.0467,1.047,1.0491,1.0528,1.048,1.048,1.0488,1.0577,1.0583,1.0591,1.0526,1.0527,1.0528,1.0575,0,1.0229,1.0287,1.0294,1.0346,1.0374,1.0371,1.0398,1.0418,1.0428,1.0452,1.0462,1.049,1.0478,1.0488,1.0508,1.052,1.0547,1.0516,1.055,1.0551,1.0544,1.0599,1.0606,1.0649,1.0581,1.0582,1.0583,0,1.0295,1.032,1.0374,1.0397,1.0409,1.0435,1.0461,1.0485,1.0506,1.0512,1.053,1.053,1.0562,1.0542,1.0585,1.0565,1.0578,1.0585,1.0587,1.0591,1.0569,1.0603,1.0663,1.067,1.0593,1.0592,1.0591,0,1.0331,1.0378,1.0416,1.0429,1.0457,1.0474,1.0486,1.0506,1.0523,1.0546,1.0556,1.0583,1.0597,1.0616,1.0623,1.0608,1.0665,1.0646,1.0669,1.0669,1.0682,1.0681,1.0744,1.0691,1.0691,1.069,1.069,0,1.0386,1.042,1.0433,1.0456,1.0492,1.0499,1.0534,1.0545,1.0563,1.0587,1.0586,1.0608,1.0616,1.0639,1.0644,1.0678,1.0685,1.0689,1.069,1.0689,1.0689,1.0698,1.0695,1.0692,1.0692,1.0691,1.0691,0,1.0433,1.0444,1.0485,1.0507,1.0513,1.0539,1.0558,1.0579,1.0588,1.0619,1.0626,1.0639,1.0667,1.0675,1.0708,1.0711,1.075,1.0749,1.0744,1.0744,1.0765,1.0763,1.0838,1.0847,1.0787,1.0788,1.0788,0,1.0468,1.0493,1.0518,1.0534,1.0547,1.0574,1.0591,1.0597,1.0614,1.0639,1.0657,1.0685,1.0707,1.075,1.0762,1.0786,1.0785,1.0809,1.0789,1.0787,1.0785,1.0783,1.0785,1.0813,1.0814,1.0814,1.0815,0,1.0527,1.0531,1.0556,1.0582,1.0602,1.0623,1.0642,1.0656,1.0664,1.0684,1.0712,1.0729,1.0762,1.0788,1.0813,1.0824,1.082,1.0821,1.0827,1.0827,1.0823,1.0824,1.0754,1.0819,1.0819,1.0819,1.0818,1.0818,1.0569,1.059,1.0611,1.0638,1.0653,1.0671,1.0692,1.0703,1.0727,1.0755,1.0756,1.0786,1.0805,1.0837,1.085,1.0872,1.0865,1.0874,1.0877,1.0879,1.088,1.0819,1.0877,1.0876,1.0876,1.0876,1.0876,0,1.0627,1.064,1.0665,1.0692,1.0713,1.0708,1.0729,1.0747,1.0773,1.0791,1.0812,1.0844,1.0868,1.0882,1.0906,1.0921,1.092,1.0927,1.0926,1.0929,1.0886,1.0878,1.0928,1.0928,1.0928,1.0928,1.0928,1.0928,1.0661,1.0697,1.0702,1.0745,1.0757,1.0786,1.0799,1.0815,1.0829,1.0864,1.0885,1.0893,1.0908,1.0933,1.0955,1.0958,1.0967,1.0975,1.0977,1.0937,1.0932,1.0927,1.0919,1.0977,1.0977,1.1018,1.1018,1.1019]}]]